Location: Newark
(34.9500°N, 139.9667°E)
Time: 20:10:35
(UTC+00:00)

Altair - Pass Details

Date: 13 December 2019
Orbit: 1502 x 1682 km, 47.2° (Epoch: 24 January)

Event Time Altitude Azimuth Distance (km) Brightness Sun altitude
Rises 11:44:59 0° 255° (WSW) 4,809 10.7 -51.5°
Reaches altitude 10° 11:48:15 10° 260° (W) 3,799 10.0 -52.2°
Enters shadow 11:52:33 29° 273° (W) 2,577 8.9 -53.0°
